Overview Statistics Trail Chart Weather Telemetry Raw packets
 

This is the latest recevied weather packets stored in our database for station/object W4SNA-3. If no packets are shown the sender has not sent any weather packets the latest 10 day(s).

<< 71 72 73 74 75 76 77 >>
Time Temp. Humidity Pressure Rain* Wind** Luminosity Snow
1788106944 25° C 80% 1024.8 hPa 0 mm - - -
1788106643 24.44° C 82% 1024.9 hPa 0 mm - - -
1788106342 23.89° C 80% 1024.9 hPa 0 mm - - -
1788106052 24.44° C 79% 1024.9 hPa 0 mm - - -
1788105744 23.89° C 84% 1024.9 hPa 0 mm - - -
1788105442 23.33° C 81% 1024.9 hPa 0 mm - - -
1788104965 23.33° C 84% 1025 hPa 0 mm - - -
1788104665 23.33° C 84% 1025 hPa 0 mm - - -
1788104365 23.33° C 86% 1025.1 hPa 0 mm - - -
1788104070 22.78° C 83% 1025 hPa 0 mm - - -
1788103765 22.78° C 85% 1025 hPa 0 mm - - -
1788103470 22.78° C 86% 1024.9 hPa 0 mm - - -
1788103168 22.78° C 85% 1024.9 hPa 0 mm - - -
1788102865 22.78° C 87% 1024.9 hPa 0 mm - - -
1788102565 22.78° C 88% 1025 hPa 0 mm - - -
1788102270 22.22° C 91% 1024.9 hPa 0 mm - - -
1788101965 21.67° C 89% 1024.9 hPa 0 mm - - -
1788101665 21.67° C 89% 1024.9 hPa 0 mm - - -
1788101368 21.67° C 88% 1024.9 hPa 0 mm - - -
1788101071 21.67° C 89% 1024.9 hPa 0 mm - - -
1788100765 21.67° C 88% 1024.9 hPa 0 mm - - -
1788100465 21.67° C 88% 1024.9 hPa 0 mm - - -
1788100165 21.67° C 89% 1024.8 hPa 0 mm - - -
1788099865 21.67° C 89% 1024.8 hPa 0 mm - - -
1788099565 21.67° C 90% 1024.8 hPa 0 mm - - -

* Rain latest hour (hover to see other rain measurements)
** Current wind speed in m/s (hover to see current wind gust speed)